{"data":{"norad_id":68357,"intl_designator":"2026-060H","name":"CENTISPACE-2 S8","alt_names":[],"object_type":"PAYLOAD","status":"ACTIVE","operator":null,"country":"PRC","launch_date":"2026-03-22","launch_site_code":"YSLA","launch_vehicle":null,"mission":null,"orbit_class":"UNKNOWN","rcs_meters":null,"size_class":null,"mass_kg":null,"dimensions":null,"purposes":[],"wikipedia_slug":null,"has_3d_model":false,"image_url":null,"decayed_at":null,"tle_current":{"epoch":"2026-09-17T20:18:32.747040Z","epoch_age_seconds":301543,"freshness":"STALE","line1":"1 68357U 26060H   26260.84621235  .00000135  00000+0  13019-3 0  9995","line2":"2 68357  54.9813  35.7154 0007908 273.7029  86.3043 14.22369198 26164","mean_motion":14.22369198,"eccentricity":0.0007908,"inclination_deg":54.9813,"raan_deg":35.7154,"arg_perigee_deg":273.7029,"mean_anomaly_deg":86.3043,"bstar":0.00013019,"rev_number":2616,"period_min":101.2395376689,"perigee_km":811.66128508524,"apogee_km":823.04166966105,"semimajor_km":7195.4884773731,"source":"CELESTRAK","updated_at":"2026-09-20T09:00:24.160515Z"}}}